Regional Weather Roundup
Issued by NWS

Home | Current Version | Previous Version | Graphics & Text | Print | Product List | Glossary On
Versions: 1 2 3 4 5 6 7 8 9 10 11 12 13 14 15 16 17 18 19 20 21 22 23 24 25 26 27 28 29 30 31 32 33 34 35 36 37 38 39 40 41 42 43 44 45 46 47 48 49 50
000
ASUS43 KBIS 291510
RWRND

NORTH DAKOTA REGIONAL WEATHER ROUNDUP
NATIONAL WEATHER SERVICE BISMARCK ND
1000 AM CDT MON AUG 29 2016

NOTE: "FAIR" INDICATES FEW OR NO CLOUDS BELOW 12,000 FEET WITH NO
SIGNIFICANT WEATHER AND/OR OBSTRUCTIONS TO VISIBILITY.


NDZ001>003-009>011-017-291600-
NORTHWEST NORTH DAKOTA

CITY           SKY/WX    TMP DP  RH WIND       PRES   REMARKS
WILLISTON      SUNNY     59  45  59 NE9       30.31S
MINOT          SUNNY     61  48  62 NW9       30.27R
MINOT AFB      SUNNY     60  47  61 N10       30.26S
$$

NDZ018>021-031>035-040>046-291600-
SOUTHWEST NORTH DAKOTA

CITY           SKY/WX    TMP DP  RH WIND       PRES   REMARKS
BISMARCK       CLOUDY    67  51  56 N14       30.23R
DICKINSON      SUNNY     63  46  54 NE14      30.27R
GARRISON         N/A     62  49  62 N13G21    30.26R
HETTINGER ARPT SUNNY     66  51  58 NE22      30.27S
$$

NDZ004>008-012>016-024-026-027-054-291600-
NORTHEAST NORTH DAKOTA

CITY           SKY/WX    TMP DP  RH WIND       PRES   REMARKS
GRAND FORKS    CLOUDY    70  64  81 N14       30.13R
GRND FRKS AFB  MOSUNNY   70  62  75 N10       30.15R
DEVILS LAKE    SUNNY     63  53  70 N15       30.20R
$$

NDZ022-023-025-028>030-036>039-047>053-291600-
SOUTHEAST NORTH DAKOTA

CITY           SKY/WX    TMP DP  RH WIND       PRES   REMARKS
FARGO          CLOUDY    76  68  76 SW8       30.13R
JAMESTOWN      SUNNY     69  61  75 N10       30.18R
$$





USA.gov is the U.S. government's official web portal to all federal, state and local government web resources and services.